sat.trackr.live / text

‹ back to catalog

STARLINK-36719

NORAD 67648 · 2026-022A

PAYLOAD ACTIVE UNKNOWN

§ Identity

Operator
Country
US
Launch date
2026-02-02
Launch site
AFWTR
Launch vehicle
Mass (kg)
RCS (m²)

Purposes: comms

External: N2YO · Heavens-Above · Gunter

§ Orbital elements

Epoch: 2026-05-25T01:42:11.250720Z

Period
93.91 min
Inclination
97.2831°
Eccentricity
0.0001963
Mean motion
15.33453758 rev/d
Perigee alt
464.2 km
Apogee alt
466.9 km
Semi-major
6,843.7 km
B*
3.7335e-4
RAAN
178.2558°
Arg perigee
90.9739°
Mean anomaly
269.1728°
Rev number
1,727

§ Raw data

STARLINK-367191 67648U 26022A   26145.07096355  .00012001  00000+0  37335-3 0  99932 67648  97.2831 178.2558 0001963  90.9739 269.1728 15.33453758 17271

JSON: /api/v1/satellites/67648 · /tle

For live sub-satellite position, see the globe view (requires WebGL).

§ Visibility from observer

Set your observer location to see the next 7 days of passes ≥ 10°. The values pass through the URL so the page stays shareable.

No JS? Fill the form by hand. The geolocation button needs JavaScript.